User: anonymous   Login
Location: Caltech
(34.1382°N, 118.1253°W)
Time: 15:23:11
(UTC-08:00)
Language:

Cosmos 1833 - Orbit

View from above orbital plane
View from above orbital plane
View from above satellite
View from above satellite

Ground track
Ground track

The orbit data is extracted from the following two-line orbital elements,

1 17589U 87027A   17017.54469675 -.00000333  00000-0 -15262-3 0  9996
2 17589  70.9162 141.3221 0026674 189.1659 170.8979 14.12870893539028
Epoch (UTC): 17 January 2017 13:04:21
Eccentricity: 0.0026674
inclination: 70.9162°
perigee height: 830 km
apogee height: 869 km
right ascension of ascending node: 141.3221°
argument of perigee: 189.1659°
revolutions per day: 14.12870893
mean anomaly at epoch: 170.8979°
orbit number at epoch: 53902

The dashed part of the orbit path shows where the satellite is in the earth's shadow,  

DLR